Regional Weather Roundup
Issued by NWS Sterling, VA

Home | Current Version | Previous Version | Graphics & Text | Print | Product List | Glossary On
Versions: 1 2 3 4 5 6 7 8 9 10 11 12 13 14 15 16 17 18 19 20 21 22 23 24 25 26 27 28 29 30 31 32 33 34 35 36 37 38 39 40 41 42 43 44 45 46 47 48 49 50
000
ASUS41 KLWX 291110
RWRLWX

REGIONAL WEATHER ROUNDUP
NATIONAL WEATHER SERVICE BALTIMORE MD/WASHINGTON DC
700 AM EDT MON JUN 29 2015

Note: "FAIR" indicates few or no clouds below 12,000 feet
with no significant weather and/or obstructions to visibility.
 TC=TEMPERATURE CELSIUS

 * =Non NWS site. Station does not report precipitation (e.g. rain,
    snow, etc.), thunder, or fog.

DCZ001-MDZ009-015-VAZ040>042-051-053>054-291200-
WASHINGTON METRO

CITY           SKY/WX    TMP DP  RH WIND       PRES   REMARKS
WASHINGTON NAT MOSUNNY   66  55  67 SW6       29.97R
DULLES         NOT AVBL
ANDREWS AFB    SUNNY     62  57  82 SW5       29.96R
FT BELVOIR     SUNNY     56  55  96 CALM      29.97R
QUANTICO       MOSUNNY   61  56  83 NW6       29.98R
COLLEGE PARK*  SUNNY     59  59 100 CALM      29.96S
LEESBURG*      SUNNY     59  55  88 CALM      29.98R
MANASSAS*      SUNNY     57  57 100 CALM      29.98R
GAITHERSBURG*  SUNNY     57  52  82 CALM      30.01R

$$

MDZ006>007-011-014-291200-
BALTIMORE METRO

CITY           SKY/WX    TMP DP  RH WIND       PRES   REMARKS
BWI AIRPORT    MOSUNNY   62  54  74 W5        29.95R
MD SCIENCE CTR   N/A     65  54  67 MISG      29.96R
MARTIN STATE   SUNNY     64  59  82 SW5       29.96R
ANNAPOLIS      SUNNY     63  54  72 SW7       29.95R
FORT MEADE*    SUNNY     55  54  94 CALM      29.98R

$$

MDZ012-015-019>023-291200-
MARYLAND EASTERN SHORE

CITY           SKY/WX    TMP DP  RH WIND       PRES   REMARKS
OCEAN CITY     SUNNY     64  58  80 W3        29.95R
SALISBURY      SUNNY     66  55  67 W7        29.95R
BAY BRIDGE AP*   N/A     66  54  63 SW6       29.96R
EASTON*        SUNNY     66  57  72 CALM      29.99R

$$

MDZ017>025-291200-
SOUTHERN MARYLAND

CITY           SKY/WX    TMP DP  RH WIND       PRES   REMARKS
PATUXENT RIVER MOSUNNY   64  54  69 SW5       29.96S
ST INIGOES     SUNNY     62  58  86 CALM      29.96S
LEONARDTOWN*   NOT AVBL

$$

MDZ003>005-291200-
NORTH CENTRAL MARYLAND

CITY           SKY/WX    TMP DP  RH WIND       PRES   REMARKS
FREDERICK*     SUNNY     57  57 100 CALM      29.99R
HAGERSTOWN APT SUNNY     61  52  72 S6        29.96R
WESTMINSTER*   SUNNY     57  54  88 SW6       29.96R

$$

MDZ501>502-291200-
WESTERN MARYLAND

CITY           SKY/WX    TMP DP  RH WIND       PRES   REMARKS
OAKLAND*       SUNNY     54 N/A N/A SW6       30.01R
CUMBERLAND*    SUNNY     55  54  94 S3        30.01R

$$

VAZ025>031-291200-
SHENANDOAH VALLEY

CITY           SKY/WX    TMP DP  RH WIND       PRES   REMARKS
WINCHESTER*    SUNNY     61  52  72 SW6       29.97S
FRONT ROYAL*   FAIR      55  52  88 S6        29.98R
LURAY*         FAIR      59  55  88 S3        30.01R
NEW MARKET*    FAIR      53  51  94 CALM      30.00R
STAUNTON*      SUNNY     56  53  91 CALM      30.04R
WAYNESBORO*    FAIR      54  50  87 SW5       30.02R

$$

WVZ021-048>050-054>055-291200-
EASTERN WEST VIRGINIA PANHANDLE

CITY           SKY/WX    TMP DP  RH WIND       PRES   REMARKS
MARTINSBURG    SUNNY     59  51  75 SE6       29.97R
PETERSBURG*    SUNNY     49  47  92 CALM      30.01R

$$

VAZ036>039-050-291200-
CENTRAL FOOTHILLS

CITY           SKY/WX    TMP DP  RH WIND       PRES   REMARKS
CHARLOTTESVILL SUNNY     59  54  83 CALM      30.00R
CULPEPER*        N/A     55  55  97 CALM      29.99S
ORANGE*        SUNNY     57  54  88 CALM      30.01R
GORDONSVILLE*  FAIR      55  54  94 CALM      29.99R
WARRENTON*     FAIR      58  58 100 CALM      29.98R

$$

VAZ055>057-291200-
NORTH AND CENTRAL PIEDMONT

CITY           SKY/WX    TMP DP  RH WIND       PRES   REMARKS
FREDERICKSBRG* SUNNY     60  60  99 CALM      29.97S
STAFFORD*      SUNNY     54  53  97 CALM      30.02R

$$

NCZ024-NYZ072-PAZ021-071-VAZ022-071-291200-
OTHER REGIONAL OBSERVATIONS

CITY           SKY/WX    TMP DP  RH WIND       PRES   REMARKS
NEW YORK CITY  SUNNY     63  53  70 VRB5      29.89R
PHILADELPHIA   MOSUNNY   66  57  72 SW10      29.92R
PITTSBURGH     PTSUNNY   55  51  86 CALM      29.95R
ROANOKE        PTCLDY    57  53  86 CALM      30.04R
RICHMOND       MOSUNNY   61  58  90 CALM      29.98S
RALEIGH        MOCLDY    62  60  93 CALM      30.00R

$$

ANZ530>537-291200-
MARINE OBSERVATIONS

STATION/POSITION TIME  TEMP    WIND        PRES
                       AIR SEA DIR/SP/G
                 (UTC) (F)     (DEG/KT/KT) (MB)
THOMAS PT LIGHT  1100   65     240/ 10       N/A
BALT KEY BRIDGE  1000   63     210/  8/  9 1013.3R
COVE POINT       1000   67     280/  5/  6 1015.0R
LEWISETTA        1000   67 78  280/  4/  5 1014.5R
SOLOMONS ISLAND  1000      79                N/A
PINEY POINT      1000           30/  3/  3   N/A

$$




USA.gov is the U.S. government's official web portal to all federal, state and local government web resources and services.